Location: Unspecified
(0.0000°N, 0.0000°E)
Time: 06:36:44
(UTC+00:00)

Vanguard 1 Rocket - Pass Details

Date: 23 November 2019
Orbit: 650 x 4226 km, 34.3° (Epoch: 10 December)

Event Time Altitude Azimuth Distance (km) Brightness Sun altitude
Rises 16:42:28 0° 231° (SW) 8,169 13.7 15.0°
Reaches altitude 10° 16:50:43 10° 217° (SW) 7,386 13.2 13.0°
Maximum altitude 17:09:30 23° 171° (S) 6,049 11.8 8.6°
Drops below altitude 10° 17:24:53 10° 125° (SE) 6,127 11.3 5.0°
Sets 17:30:34 0° 110° (ESE) 6,588 11.3 3.7°
